Tracking 19562 objects as of 22-Mar-2019
HD Live streaming from Space Station
objects crossing your sky now

USA 278

Track USA 278 now!


NORAD ID: 42941
Int'l Code: 2017-056A
Perigee: 1,764.2 km
Apogee: 38,605.7 km
Inclination: 63.7 °
Period: 717.8 minutes
Semi major axis: 26555 km
RCS: Unknown
Launch date: September 24, 2017
Source: United States (US)
Launch site: AIR FORCE WESTERN TEST RANGE (AFWTR)
aabbcc
Your satellite tracking list
Your tracking list is empty




NASA's NSSDC Master Catalog

Two Line Element Set (TLE):
1 42941U 17056A   19028.53976738 0.00000000  00000-0  00000-0 0    00
2 42941  63.6744 114.5270 6936592 266.7721  18.7073  2.00614000    02
Source of the keplerian elements: McCants